Starlink 30841

operational
NORAD ID: 58208 Int'l Des: 2023-170 Owner: SPXS Country: US Constellation: starlink
LEOCIRCULAR

About Starlink 30841

Description loading...

Live Position

Loading 3D Globe...

Upcoming Passes

Altitude History

Altitude vs Time

uPlot chart will show altitude changes over time

Two-Line Element Set

1 58208U 23170C 25257.51385213 .00001482 00000-0 12477-3 0 9994
2 58208 43.0033 73.5736 0001216 266.1474 93.9229 15.02537569103774
Epoch: Sep 14, 2025 • Age: 24 hours

Current Status

Altitude 560.9 km
Velocity 7.59 km/s
Sub-Earth Point 33.31°N, 69.64°W
Launch Date Nov 4, 2023
Age 1.8 years
Type internet

Technical Details

Classification Payload
Mass 730.00 kg
Dry Mass 700.00 kg
Total Mass 730.00 kg
Length 0.30 m
Diameter 4.10 m
Span 29.00 m
Shape Box + pan
Manufacturer SPXS
Bus Type Starlink V2M
Phase Status In Orbit
Owner/State SPXS/US

Large Constellations

Loading constellations...